Location: D�pe
(52.6057°N, 8.1808°E)
Time: 07:09:30
(UTC+00:00)

NOAA 12 - Pass Details

Date: 29 October 2020
Orbit: 795 x 815 km, 98.5° (Epoch: 01 December)

Event Time Altitude Azimuth Distance (km) Brightness Sun altitude
Rises 16:41:40 0° 163° (SSE) 3,316 7.3 -6.5°
Reaches altitude 10° 16:43:59 10° 164° (SSE) 2,391 6.5 -6.9°
Maximum altitude 16:49:18 88° 255° (WSW) 821 4.2 -7.7°
Drops below altitude 10° 16:54:40 10° 344° (NNW) 2,418 6.6 -8.5°
Sets 16:57:02 0° 345° (NNW) 3,355 7.4 -8.8°
